Powrót do katalogu

OPS 4682 DEB

AktywnyPO
NORAD 19355·DEBRIS·🇺🇸 United States

Wystrzelony Apr 3, 1965 z Vandenberg Space Force Base

Loading…

Następne Przeloty (najbliższe 24 godziny)

TLE

ŚwieżeSource: Space-Track

Epoka: Sep 14, 2026, 06:28 UTC

1 19355U 65027AT  26257.26988115  .00000365  00000-0  12108-2 0  9993
2 19355  90.2390 359.4609 0045081 171.4702 216.2983 12.98278654814268

Śledź OPS 4682 DEB w czasie rzeczywistym z AllMySat

Download on the App Store